Waarnemingen

Advertentie
Mijn weer
Inverbervie, Groot Brittannië (3088): temperatuur & dauwpunt: 16.06.2018 08:00:00 - 22.06.2018 08:00:00 (BST)Inverbervie, Groot Brittannië (3088): temperatuur -20cm & temperatuur -100cm: 16.06.2018 08:00:00 - 22.06.2018 08:00:00 (BST)Inverbervie, Groot Brittannië (3088): windsnelheid & windstoten: 16.06.2018 08:00:00 - 22.06.2018 08:00:00 (BST)Inverbervie, Groot Brittannië (3088): windrichting: 16.06.2018 08:00:00 - 22.06.2018 08:00:00 (BST)Inverbervie, Groot Brittannië (3088): luchtdruk: 16.06.2018 08:00:00 - 22.06.2018 08:00:00 (BST)Inverbervie, Groot Brittannië (3088): zicht: 16.06.2018 08:00:00 - 22.06.2018 08:00:00 (BST)Inverbervie, Groot Brittannië (3088): neerslag: 16.06.2018 08:00:00 - 22.06.2018 08:00:00 (BST)
Datum & Tijd tt [°C] td [°C] tt -20cm [°C] tt -100cm [°C] ff [km/u] ff [kn] fx [km/u] fx [kn] dd ppp [hPa] vv [km] rr [mm]
22.06.2018 08:00:00 10,4 5,2 - - 34 18 50 27 NW 1029,2 40 0,0
22.06.2018 07:00:00 9,2 4,7 - - 31 17 46 25 WNW 1029,1 40 0,0
22.06.2018 06:00:00 9,0 4,4 - - 28 15 46 25 WNW 1029,2 30 0,0
22.06.2018 05:00:00 8,3 4,1 - - 26 14 - - WNW 1029,2 40 0,0
22.06.2018 04:00:00 7,9 3,8 - - 18 10 - - WNW 1029,1 40 0,0
22.06.2018 03:00:00 8,3 3,8 - - 29 16 52 28 NW 1028,5 45 0,0
22.06.2018 02:00:00 8,1 3,9 - - 34 18 48 26 NW 1028,1 35 0,0
22.06.2018 01:00:00 8,8 3,7 - - 34 18 48 26 NW 1028,3 40 0,0
22.06.2018 00:00:00 9,3 3,7 - - 34 18 50 27 WNW 1028,2 40 0,0
21.06.2018 23:00:00 10,3 2,9 - - 35 19 57 31 NW 1027,7 35 0,0
21.06.2018 22:00:00 10,8 2,6 - - 35 19 59 32 NW 1027,4 45 0,0
21.06.2018 21:00:00 12,3 3,1 - - 24 13 63 34 NW 1027,0 45 0,0
21.06.2018 20:00:00 13,5 3,2 - - 46 25 65 35 NW 1025,7 45 0,0
21.06.2018 19:00:00 14,5 4,1 - - 37 20 67 36 NW 1025,5 50 0,0
21.06.2018 18:00:00 14,9 3,8 - - 39 21 63 34 NW 1024,8 45 0,0
21.06.2018 17:00:00 15,1 2,9 - - 39 21 67 36 NW 1024,7 35 0,0
21.06.2018 16:00:00 15,2 4,6 - - 39 21 63 34 NW 1024,3 35 0,0
21.06.2018 15:00:00 13,6 3,5 - - 46 25 67 36 NW 1023,9 50 0,0
21.06.2018 14:00:00 14,6 3,8 - - 37 20 65 35 NW 1023,4 50 0,0
21.06.2018 13:00:00 11,9 4,3 - - 41 22 67 36 NW 1023,5 35 0,0
21.06.2018 12:00:00 11,8 5,0 - - 41 22 61 33 WNW 1022,8 40 0,0
21.06.2018 11:00:00 12,2 5,5 - - 29 16 54 29 NW 1022,4 45 0,0
21.06.2018 10:00:00 11,7 4,3 12,9 11,7 39 21 63 34 WNW 1021,6 50 0,0
21.06.2018 09:00:00 10,2 4,8 - - 35 19 54 29 WNW 1021,5 40 0,0
21.06.2018 08:00:00 9,6 5,5 - - 34 18 57 31 NW 1021,3 20 0,0
21.06.2018 07:00:00 8,3 5,1 - - 28 15 54 29 NW 1020,6 50 0,0
21.06.2018 06:00:00 7,1 4,6 - - 26 14 50 27 NW 1019,7 45 0,0
21.06.2018 05:00:00 6,7 4,4 - - 24 13 50 27 WNW 1018,9 50 0,0
21.06.2018 04:00:00 6,0 4,5 - - 37 20 48 26 NW 1017,7 50 0,0
21.06.2018 03:00:00 5,4 4,2 - - 26 14 - - NW 1017,4 50 0,2
21.06.2018 02:00:00 6,0 4,7 - - 29 16 48 26 NW 1016,8 45 0,0
21.06.2018 01:00:00 6,7 5,2 - - 24 13 - - NW 1016,2 50 0,8
21.06.2018 00:00:00 7,8 6,8 - - 13 7 - - WNW 1015,8 13 0,8
20.06.2018 23:00:00 8,7 6,9 - - 18 10 - - WNW 1015,4 50 0,0
20.06.2018 22:00:00 8,8 8,4 - - 11 6 - - WNW 1015,4 29 0,0
20.06.2018 21:00:00 9,1 8,8 - - 2 1 - - OZO 1015,2 15 0,0
20.06.2018 20:00:00 9,8 9,5 - - 11 6 - - Z 1015,7 15 0,0
20.06.2018 19:00:00 9,6 9,2 - - 16 9 - - Z 1015,8 14 0,0
20.06.2018 18:00:00 10,2 10,0 - - 16 9 - - Z 1016,1 12 1,6
20.06.2018 17:00:00 9,6 8,4 - - 11 6 - - ZZO 1016,2 9 0,2
20.06.2018 16:00:00 10,6 8,2 - - 11 6 - - ZO 1015,9 26 0,0
20.06.2018 15:00:00 12,8 7,8 - - 11 6 - - NW 1015,8 35 0,0
20.06.2018 14:00:00 14,4 9,8 - - 16 9 - - NW 1015,0 30 0,0
20.06.2018 13:00:00 11,3 8,3 - - 21 11 - - NNW 1014,9 27 0,0
20.06.2018 12:00:00 12,4 10,0 - - 26 14 - - N 1013,5 23 0,0
20.06.2018 11:00:00 11,0 8,8 - - 29 16 - - NNW 1012,7 19 0,0
20.06.2018 10:00:00 10,2 9,1 13,0 11,7 31 17 46 25 NNW 1011,5 28 0,0
20.06.2018 09:00:00 9,3 9,1 - - 29 16 - - NNW 1010,7 30 0,0
20.06.2018 08:00:00 8,5 8,5 - - 29 16 - - NNW 1009,8 21 1,4
20.06.2018 07:00:00 8,6 8,6 - - 24 13 - - N 1009,5 4,4 1,6
20.06.2018 06:00:00 8,4 8,4 - - 24 13 - - NO 1009,4 0,3 0,4
20.06.2018 05:00:00 8,3 8,3 - - 24 13 - - NNO 1009,7 4,6 3,2
20.06.2018 04:00:00 8,4 8,4 - - 18 10 - - NNO 1010,6 2,9 2,4
20.06.2018 03:00:00 8,4 8,4 - - 13 7 - - NO 1011,3 0,7 1,4
20.06.2018 02:00:00 8,5 8,4 - - 8 4 - - O 1012,2 0,4 1,8
20.06.2018 01:00:00 8,6 8,5 - - 8 4 - - Z 1013,8 0,4 1,2
20.06.2018 00:00:00 9,0 8,6 - - 11 6 - - Z 1014,4 1,5 0,6
19.06.2018 23:00:00 9,3 7,4 - - 0 0 - - N 1014,9 12 0,8
19.06.2018 22:00:00 9,5 8,0 - - 9 5 - - WNW 1015,5 24 0,4
19.06.2018 21:00:00 10,1 7,8 - - 13 7 - - W 1015,6 18 0,4
19.06.2018 20:00:00 12,0 6,7 - - 26 14 - - ZW 1015,9 29 0,0
19.06.2018 19:00:00 12,5 6,8 - - 22 12 - - ZZW 1015,8 23 0,0
19.06.2018 18:00:00 12,2 8,0 - - 21 11 - - ZZW 1016,2 24 0,0
19.06.2018 17:00:00 15,4 5,4 - - 29 16 46 25 WZW 1015,6 45 0,0
19.06.2018 16:00:00 15,8 6,1 - - 24 13 46 25 WZW 1016,1 40 0,0
19.06.2018 15:00:00 15,0 5,2 - - 29 16 - - WZW 1016,2 28 0,0
19.06.2018 14:00:00 13,9 5,8 - - 29 16 46 25 WZW 1016,2 40 0,0
19.06.2018 13:00:00 13,5 4,6 - - 34 18 54 29 WZW 1016,5 40 0,0
19.06.2018 12:00:00 13,9 4,6 - - 31 17 54 29 WZW 1016,2 40 0,0
19.06.2018 11:00:00 12,8 5,6 - - 28 15 - - WZW 1016,1 28 0,0
19.06.2018 10:00:00 11,4 6,0 13,2 11,7 26 14 - - ZW 1015,8 40 0,0
19.06.2018 09:00:00 10,3 5,6 - - 29 16 - - ZW 1015,5 26 0,0
19.06.2018 08:00:00 9,7 5,6 - - 29 16 - - ZW 1014,9 30 0,0
19.06.2018 07:00:00 8,7 5,3 - - 21 11 - - ZZW 1014,7 27 0,0
19.06.2018 06:00:00 8,6 4,3 - - 34 18 - - ZW 1013,4 40 0,0
19.06.2018 05:00:00 7,9 3,7 - - 26 14 48 26 WZW 1013,0 40 0,0
19.06.2018 04:00:00 8,6 4,1 - - 31 17 48 26 WZW 1012,3 35 0,0
19.06.2018 03:00:00 8,7 4,0 - - 34 18 50 27 WZW 1011,7 40 0,0
19.06.2018 02:00:00 8,8 3,8 - - 35 19 59 32 W 1011,2 35 0,0
19.06.2018 01:00:00 9,0 4,0 - - 37 20 57 31 WZW 1010,8 30 0,0
19.06.2018 00:00:00 9,9 4,2 - - 37 20 59 32 W 1010,5 26 0,0
18.06.2018 23:00:00 9,9 4,7 - - 29 16 50 27 WZW 1010,6 29 0,0
18.06.2018 22:00:00 10,9 4,4 - - 28 15 59 32 W 1010,1 30 0,0
18.06.2018 21:00:00 13,1 5,7 - - 35 19 70 38 W 1008,9 17 0,0
18.06.2018 20:00:00 14,6 4,5 - - 41 22 68 37 WZW 1007,9 30 0,0
18.06.2018 19:00:00 15,7 4,8 - - 42 23 59 32 WZW 1007,9 35 0,0
18.06.2018 18:00:00 15,8 6,2 - - 39 21 65 35 WZW 1007,8 24 0,0
18.06.2018 17:00:00 15,5 5,5 - - 41 22 70 38 WZW 1007,9 40 0,0
18.06.2018 16:00:00 16,7 7,5 - - 55 30 74 40 WZW 1007,7 30 0,0
18.06.2018 15:00:00 17,4 8,5 - - 41 22 72 39 WZW 1008,4 30 0,0
18.06.2018 14:00:00 15,8 5,9 - - 46 25 67 36 WZW 1008,0 28 0,0
18.06.2018 13:00:00 15,3 7,2 - - 39 21 59 32 WZW 1008,6 27 0,0
18.06.2018 12:00:00 14,4 5,7 - - 42 23 61 33 WZW 1008,5 30 0,0
18.06.2018 11:00:00 14,1 7,8 - - 35 19 52 28 WZW 1008,9 27 0,0
18.06.2018 10:00:00 13,4 7,8 13,2 11,7 31 17 48 26 WZW 1009,0 27 0,0
18.06.2018 09:00:00 12,1 7,5 - - 37 20 48 26 WZW 1008,3 29 0,0
18.06.2018 08:00:00 12,2 7,7 - - 34 18 50 27 WZW 1008,0 30 0,0
18.06.2018 07:00:00 11,1 8,3 - - 28 15 - - WZW 1007,7 40 0,0
18.06.2018 06:00:00 10,9 8,5 - - 34 18 50 27 WZW 1007,5 50 0,0
18.06.2018 05:00:00 11,0 8,1 - - 29 16 46 25 WZW 1006,9 50 0,0
18.06.2018 04:00:00 11,7 8,8 - - 35 19 52 28 WZW 1006,4 45 0,0
18.06.2018 03:00:00 12,2 10,3 - - 31 17 50 27 WZW 1005,9 50 0,0
18.06.2018 02:00:00 12,5 11,3 - - 31 17 46 25 WZW 1005,8 50 0,0
18.06.2018 01:00:00 11,8 11,6 - - 24 13 - - ZW 1006,0 35 0,0
18.06.2018 00:00:00 11,2 10,8 - - 28 15 - - ZW 1006,4 20 0,0
17.06.2018 23:00:00 11,8 11,1 - - 29 16 - - ZZW 1006,4 40 0,0
17.06.2018 22:00:00 11,5 10,8 - - 29 16 - - ZZW 1006,6 29 0,0
17.06.2018 21:00:00 12,3 10,7 - - 31 17 - - ZZW 1006,8 35 0,0
17.06.2018 20:00:00 12,1 10,0 - - 26 14 - - ZZW 1006,8 30 0,0
17.06.2018 19:00:00 12,0 9,9 - - 26 14 - - ZZW 1007,3 27 0,0
17.06.2018 18:00:00 11,8 9,8 - - 28 15 - - Z 1007,7 23 0,0
17.06.2018 17:00:00 11,6 9,8 - - 24 13 - - ZZW 1008,1 24 0,0
17.06.2018 16:00:00 13,3 10,3 - - 24 13 - - ZZW 1007,8 30 0,0
17.06.2018 15:00:00 13,3 10,0 - - 31 17 - - ZZW 1008,1 45 0,0
17.06.2018 14:00:00 14,7 10,7 - - 31 17 - - ZZW 1007,9 40 0,0
17.06.2018 13:00:00 15,2 10,5 - - 26 14 46 25 ZZW 1007,8 30 0,0
17.06.2018 12:00:00 15,1 9,3 - - 29 16 - - ZW 1008,0 19 0,0
17.06.2018 11:00:00 13,4 8,3 - - 24 13 - - ZW 1007,8 40 0,0
17.06.2018 10:00:00 13,2 9,3 12,9 11,7 21 11 - - WZW 1008,1 28 0,0
17.06.2018 09:00:00 10,9 9,1 - - 18 10 - - Z 1008,2 45 0,0
17.06.2018 08:00:00 10,8 9,5 - - 2 1 - - Z 1008,0 27 0,0
17.06.2018 07:00:00 10,4 9,4 - - 0 0 - - N 1007,9 30 0,0
17.06.2018 06:00:00 9,8 8,9 - - 0 0 - - N 1007,5 35 0,0
17.06.2018 05:00:00 9,0 8,6 - - 0 0 - - N 1007,5 30 0,0
17.06.2018 04:00:00 8,6 8,2 - - 5 3 - - Z 1007,4 19 0,0
17.06.2018 03:00:00 8,4 8,2 - - 5 3 - - ZW 1007,1 50 0,0
17.06.2018 02:00:00 8,1 8,0 - - 4 2 - - N 1007,0 35 0,0
17.06.2018 01:00:00 7,7 7,5 - - 13 7 - - WNW 1006,6 17 0,0
17.06.2018 00:00:00 8,8 8,7 - - 11 6 - - NW 1006,0 35 0,0
16.06.2018 23:00:00 8,7 8,6 - - 9 5 - - NW 1005,9 15 0,0
16.06.2018 22:00:00 10,0 10,0 - - 2 1 - - W 1005,6 7 0,0
16.06.2018 21:00:00 10,3 10,3 - - 11 6 - - NNW 1005,2 9 0,0
16.06.2018 20:00:00 9,7 9,6 - - 13 7 - - ZZO 1005,5 0,3 0,0
16.06.2018 19:00:00 9,6 9,5 - - 26 14 - - ZO 1005,5 4,6 3,2
16.06.2018 18:00:00 9,6 9,3 - - 21 11 - - O 1006,3 5 4,6
16.06.2018 17:00:00 9,4 9,2 - - 16 9 - - OZO 1006,7 8 0,8
16.06.2018 16:00:00 9,7 9,5 - - 15 8 - - ZO 1007,1 7 1,0
16.06.2018 15:00:00 10,1 9,7 - - 21 11 - - ZZO 1007,5 5 0,8
16.06.2018 14:00:00 11,0 10,0 - - 24 13 - - Z 1007,8 13 0,0
16.06.2018 13:00:00 11,5 9,6 - - 22 12 - - Z 1008,3 25 0,0
16.06.2018 12:00:00 11,6 10,0 - - 21 11 - - Z 1008,5 15 0,0
16.06.2018 11:00:00 10,5 9,4 - - 26 14 - - Z 1008,9 20 0,0
16.06.2018 10:00:00 10,6 9,2 13,2 11,7 26 14 - - Z 1009,3 19 0,0
16.06.2018 09:00:00 10,8 9,5 - - 22 12 - - Z 1009,7 23 0,0
16.06.2018 08:00:00 10,5 9,4 - - 16 9 - - Z 1009,9 20 0,0

tt = temperatuur
td = dauwpunt
tt -20cm = temperatuur -20cm
tt -100cm = temperatuur -100cm
ff = windsnelheid
fx = windstoten
dd = windrichting
ppp = luchtdruk
vv = zicht
rr = neerslag

Weerstations in de omgeving